Regional Weather Roundup
Issued by NWS Little Rock, AR

Home | Current Version | Previous Version | Text Only | Print | Product List | Glossary Off
Versions: 1 2 3 4 5 6 7 8 9 10 11 12 13 14 15 16 17 18 19 20 21 22 23 24 25 26 27 28 29 30 31 32 33 34 35 36 37 38 39 40 41 42 43 44 45 46 47 48 49 50

755
ASUS44 KLZK 280105
RWRLZK

WEATHER ROUNDUP FOR ARKANSAS
NATIONAL WEATHER SERVICE LITTLE ROCK AR
800 PM CDT THU APR 27 2017

NOTE: "FAIR" INDICATES FEW OR NO CLOUDS BELOW 12,000 FEET WITH NO
SIGNIFICANT WEATHER AND/OR OBSTRUCTIONS TO VISIBILITY.

ARZ001-003-010-029-280200-
NORTHWEST ARKANSAS

CITY           SKY/WX    TMP DP  RH WIND       PRES   REMARKS
FAYETTEVILLE   PTCLDY    59  50  72 E5        29.69F
FORT SMITH     CLEAR     65  50  58 E7        29.66R
HARRISON       CLOUDY    61  48  62 SE8       29.74R
BENTONVILLE    CLOUDY    63  45  51 SE7       29.70F
ROGERS         CLOUDY    61  45  55 E7        29.71F
SILOAM SPGS    CLOUDY    59  43  55 E3        29.69S
HIGHFILL       CLOUDY    61  44  53 E5        29.69S
SPRINGDALE     CLOUDY    61  45  55 E6        29.71F
$$

ARZ004-005-016-280200-
NORTH CENTRAL ARKANSAS

CITY           SKY/WX    TMP DP  RH WIND       PRES   REMARKS
BATESVILLE     CLEAR     61  48  63 SE5       29.77S
FLIPPIN        CLOUDY   N/A N/A N/A SE5       29.72R
MTN HOME       CLOUDY    62  47  57 SE5       29.74R
$$

ARZ040-041-280200-
WEST CENTRAL ARKANSAS

CITY           SKY/WX    TMP DP  RH WIND       PRES   REMARKS
MENA           CLEAR     63  55  77 CALM      29.70S
MOUNT IDA      CLEAR     63  51  65 SE3       29.69R
$$

ARZ009-017-025-026-028-280200-
NORTHEAST ARKANSAS

CITY           SKY/WX    TMP DP  RH WIND       PRES   REMARKS
JONESBORO      CLEAR     63  52  67 SE5       29.79S
NEWPORT        CLEAR     61  53  75 SE9       29.78S
WALNUT RIDGE   CLEAR     63  50  63 SE9       29.79R
BLYTHEVILLE    CLEAR     61  53  75 SW3       29.82R
$$

ARZ022-023-033-042-044-280200-
CENTRAL ARKANSAS

CITY           SKY/WX    TMP DP  RH WIND       PRES   REMARKS
LITTLE ROCK    PTCLDY    62  52  69 SE6       29.75R
N LITTLE ROCK    N/A     62  51  67 SE8       29.76S
JACKSONVILLE   CLEAR     62  53  73 E3        29.75R
CONWAY           N/A     64  54  68 E9G17     29.73R
SEARCY         CLEAR     60  53  77 S3        29.79R
HOT SPRINGS    CLEAR     66  53  63 SE6       29.73R
RUSSELLVILLE   PTCLDY    64  49  57 CALM      29.71S
CLINTON          N/A     61  52  72 CALM      29.76R
$$

ARZ036-280200-
EAST ARKANSAS

CITY           SKY/WX    TMP DP  RH WIND       PRES   REMARKS
WEST MEMPHIS   CLEAR     61  56  83 S5        29.79F
$$

ARZ050-053-066-070-073-280200-
SOUTHWEST ARKANSAS

CITY           SKY/WX    TMP DP  RH WIND       PRES   REMARKS
ARKADELPHIA    FAIR      65  59  81 CALM      29.73R
CAMDEN         CLEAR     64  50  59 SE5       29.72S
TEXARKANA      CLEAR     65  54  67 SE5       29.69S
EL DORADO      CLEAR     65  53  65 SE6       29.72F
DE QUEEN       CLEAR     65  56  72 SE5       29.67R
$$

ARZ056-057-069-280200-
SOUTHEAST ARKANSAS

CITY           SKY/WX    TMP DP  RH WIND       PRES   REMARKS
PINE BLUFF     CLEAR     64  53  67 SE10      29.75F
STUTTGART      CLEAR     64  48  55 SE5       29.77S
MONTICELLO     CLEAR     64  54  69 E5        29.75F

$$






USA.gov is the U.S. government's official web portal to all federal, state and local government web resources and services.